Rechercher aéroport 
image banner adimage banner adimage banner ad
image banner ad

76CN - El Centro Rgnl Medical Center

Situé à El Centro, United States

ICAO - 76CN, IATA -

Données fournies par Airmate  

Information générale

Coordonnées: N32°46'47" W115°34'7"
Élévation : 75 feet MSL.
 
Voir autres Aéroports à California

Données opérationnelles

Special qualification required
Heure actuelle UTC:
Heure actuelle locale:
Météo à : KIPL - Imperial County ( 6 km )
METAR: KIPL 231353Z AUTO 19003KT 10SM 25/16 A2980 RMK AO2 SLP090 T02500156 $
TAF: KIPL 231120Z 2312/2412 13005KT P6SM FEW250 FM231600 VRB04KT P6SM SCT250 FM232000 14009G15KT P6SM SCT100 SCT150 BKN200 FM240200 VRB06KT P6SM FEW100 SCT200
Voir NOTAMs / SUP AIP / TFR affectant cet aéroport [VIEW]
Fréquences de communication: [VIEW]

Pistes:

Coordonnées de l'aéroport

Adresse: El Centro United States

Vue satellite de 76CN